DINCC EDJA-EBCI

Flight info

Callsign DINCC
Flight time 1h 23m
Altitude 40000
Route LUPOL5B LUPOL Z714 PELOG UM164 UTABA DCT EDISA DCT LIMGO DCT LNO
Aircraft P180/L-SBDFGM3RWXY/LB1

Departure

Time 2026-05-01 14:00
Airport Memmingen Allgau Airport (EDJA)

Arrival

Time 2026-05-01 15:23
Airport Brussels South Charleroi Airport (EBCI)
Time Latitude Longitude Altitude Speed Heading
2026-05-01 13:40 47.98634 10.23671 2071 ft 0 kts 329°
2026-05-01 13:58 47.98646 10.23658 2071 ft 0 kts 328°
2026-05-01 13:59 47.98668 10.23637 2072 ft 7 kts 326°
2026-05-01 13:59 47.98724 10.23586 2072 ft 7 kts 340°
2026-05-01 13:59 47.98773 10.23683 2072 ft 41 kts 60°
2026-05-01 13:59 47.99057 10.24392 2062 ft 109 kts 59°
2026-05-01 14:00 47.99481 10.25475 2486 ft 127 kts 59°
2026-05-01 14:00 47.99962 10.26598 3151 ft 138 kts 59°
2026-05-01 14:00 48.00477 10.27980 3665 ft 161 kts 65°
2026-05-01 14:00 48.00966 10.29401 4673 ft 151 kts 60°
2026-05-01 14:01 48.01568 10.30770 5528 ft 161 kts 62°
2026-05-01 14:01 48.02117 10.32222 6467 ft 164 kts 62°
2026-05-01 14:01 48.02746 10.33675 7307 ft 168 kts 62°
2026-05-01 14:01 48.03351 10.35168 8169 ft 168 kts 60°
2026-05-01 14:02 48.04224 10.36359 8968 ft 177 kts 30°
2026-05-01 14:02 48.05411 10.36817 9736 ft 183 kts
2026-05-01 14:02 48.06662 10.36321 10463 ft 193 kts 335°
2026-05-01 14:02 48.07801 10.35212 11151 ft 196 kts 331°
2026-05-01 14:03 48.08936 10.34114 11895 ft 193 kts 330°
2026-05-01 14:03 48.10053 10.32975 12539 ft 198 kts 321°
2026-05-01 14:03 48.10734 10.31179 13218 ft 202 kts 292°
2026-05-01 14:03 48.11260 10.29209 13847 ft 204 kts 297°
2026-05-01 14:04 48.11829 10.27244 14421 ft 206 kts 295°
2026-05-01 14:04 48.12382 10.25253 14938 ft 209 kts 295°
2026-05-01 14:04 48.12940 10.23238 15453 ft 210 kts 295°
2026-05-01 14:04 48.13309 10.21891 15788 ft 212 kts 295°
2026-05-01 14:05 48.14074 10.19152 16452 ft 214 kts 295°
2026-05-01 14:05 48.14645 10.17082 16923 ft 217 kts 297°
2026-05-01 14:05 48.15252 10.14957 17375 ft 222 kts 295°
2026-05-01 14:05 48.15816 10.12844 17982 ft 222 kts 295°
2026-05-01 14:06 48.16410 10.10694 18504 ft 224 kts 295°
2026-05-01 14:06 48.17009 10.08534 18984 ft 225 kts 295°
2026-05-01 14:06 48.17605 10.06370 19466 ft 224 kts 294°
2026-05-01 14:06 48.18186 10.04207 19951 ft 224 kts 297°
2026-05-01 14:07 48.18815 10.02043 20340 ft 228 kts 296°
2026-05-01 14:07 48.19405 9.99837 20821 ft 228 kts 295°
2026-05-01 14:07 48.19985 9.97634 21332 ft 226 kts 295°
2026-05-01 14:08 48.21215 9.93272 22267 ft 229 kts 295°
2026-05-01 14:08 48.21783 9.91037 22751 ft 232 kts 289°
2026-05-01 14:08 48.21948 9.88602 23232 ft 236 kts 275°
2026-05-01 14:08 48.22009 9.86128 23691 ft 239 kts 276°
2026-05-01 14:09 48.22119 9.83645 24180 ft 239 kts 277°
2026-05-01 14:09 48.22231 9.81153 24638 ft 240 kts 277°
2026-05-01 14:09 48.22342 9.78650 25084 ft 241 kts 276°
2026-05-01 14:09 48.22444 9.76136 25555 ft 242 kts 278°
2026-05-01 14:10 48.22555 9.73599 25983 ft 245 kts 277°
2026-05-01 14:10 48.22654 9.71079 26475 ft 245 kts 276°
2026-05-01 14:10 48.22760 9.68516 26934 ft 247 kts 276°
2026-05-01 14:10 48.23002 9.65972 27417 ft 247 kts 285°
2026-05-01 14:11 48.23341 9.63437 27910 ft 249 kts 283°
2026-05-01 14:11 48.23971 9.58287 28896 ft 252 kts 283°
2026-05-01 14:11 48.24298 9.55704 29483 ft 251 kts 283°
2026-05-01 14:12 48.24625 9.53136 30054 ft 250 kts 284°
2026-05-01 14:12 48.24947 9.50572 30576 ft 250 kts 284°
2026-05-01 14:12 48.25345 9.48002 30873 ft 254 kts 294°
2026-05-01 14:12 48.26112 9.45632 31257 ft 252 kts 305°
2026-05-01 14:13 48.27188 9.43569 31657 ft 249 kts 317°
2026-05-01 14:13 48.28004 9.42342 31905 ft 250 kts 317°
2026-05-01 14:13 48.29622 9.39840 32381 ft 253 kts 316°
2026-05-01 14:13 48.30853 9.37938 32727 ft 255 kts 316°
2026-05-01 14:14 48.32097 9.36026 33094 ft 255 kts 316°
2026-05-01 14:14 48.33342 9.34114 33447 ft 257 kts 316°
2026-05-01 14:14 48.34599 9.32181 33745 ft 260 kts 316°
2026-05-01 14:14 48.35433 9.30889 33965 ft 260 kts 316°
2026-05-01 14:15 48.36700 9.28932 34299 ft 261 kts 317°
2026-05-01 14:15 48.37969 9.26975 34584 ft 262 kts 316°
2026-05-01 14:15 48.39241 9.25007 34893 ft 261 kts 316°
2026-05-01 14:15 48.40917 9.22418 35297 ft 261 kts 316°
2026-05-01 14:16 48.41776 9.21091 35436 ft 263 kts 316°
2026-05-01 14:16 48.43052 9.19108 35669 ft 264 kts 316°
2026-05-01 14:16 48.44329 9.17125 35947 ft 264 kts 316°
2026-05-01 14:16 48.45612 9.15137 36193 ft 265 kts 316°
2026-05-01 14:17 48.46893 9.13147 36437 ft 265 kts 316°
2026-05-01 14:17 48.48179 9.11149 36662 ft 266 kts 316°
2026-05-01 14:17 48.49461 9.09164 36804 ft 269 kts 315°
2026-05-01 14:17 48.50766 9.07125 36998 ft 271 kts 315°
2026-05-01 14:18 48.52071 9.05086 37266 ft 269 kts 315°
2026-05-01 14:18 48.53379 9.03056 37456 ft 271 kts 315°
2026-05-01 14:18 48.54690 9.01011 37623 ft 273 kts 315°
2026-05-01 14:18 48.56015 8.98938 37750 ft 276 kts 314°
2026-05-01 14:19 48.57351 8.96850 37944 ft 276 kts 315°
2026-05-01 14:19 48.58684 8.94766 38173 ft 275 kts 315°
2026-05-01 14:19 48.60012 8.92687 38357 ft 276 kts 315°
2026-05-01 14:19 48.61340 8.90608 38590 ft 274 kts 315°
2026-05-01 14:20 48.62670 8.88528 38687 ft 277 kts 314°
2026-05-01 14:20 48.65346 8.84320 39077 ft 274 kts 315°
2026-05-01 14:20 48.66675 8.82233 39167 ft 276 kts 314°
2026-05-01 14:21 48.68021 8.80118 39232 ft 279 kts 315°
2026-05-01 14:21 48.69341 8.78038 39435 ft 277 kts 315°
2026-05-01 14:21 48.70681 8.75933 39528 ft 280 kts 314°
2026-05-01 14:22 48.73393 8.71649 39756 ft 282 kts 314°
2026-05-01 14:22 48.74751 8.69504 39846 ft 284 kts 314°
2026-05-01 14:22 48.76124 8.67337 39924 ft 286 kts 314°
2026-05-01 14:22 48.77499 8.65160 40016 ft 287 kts 314°
2026-05-01 14:23 48.78884 8.62967 40087 ft 289 kts 314°
2026-05-01 14:23 48.80278 8.60757 40186 ft 289 kts 314°
2026-05-01 14:23 48.81669 8.58551 40268 ft 291 kts 314°
2026-05-01 14:23 48.83077 8.56319 40271 ft 295 kts 314°
2026-05-01 14:24 48.84504 8.54050 40276 ft 298 kts 314°
2026-05-01 14:24 48.85936 8.51775 40277 ft 298 kts 314°
2026-05-01 14:24 48.87367 8.49496 40279 ft 297 kts 314°
2026-05-01 14:24 48.88790 8.47227 40284 ft 296 kts 314°
2026-05-01 14:25 48.90209 8.44966 40280 ft 296 kts 314°
2026-05-01 14:25 48.91628 8.42701 40278 ft 295 kts 314°
2026-05-01 14:25 48.93047 8.40435 40277 ft 295 kts 314°
2026-05-01 14:25 48.94445 8.38202 40275 ft 295 kts 314°
2026-05-01 14:26 48.95856 8.35943 40270 ft 295 kts 314°
2026-05-01 14:26 48.98627 8.31348 40269 ft 294 kts 306°
2026-05-01 14:26 48.99691 8.28694 40270 ft 294 kts 297°
2026-05-01 14:27 49.00598 8.25904 40269 ft 294 kts 297°
2026-05-01 14:27 49.01531 8.23118 40270 ft 294 kts 298°
2026-05-01 14:27 49.02460 8.20348 40271 ft 293 kts 297°
2026-05-01 14:28 49.04284 8.14792 40272 ft 293 kts 297°
2026-05-01 14:28 49.05205 8.12025 40271 ft 292 kts 298°
2026-05-01 14:28 49.06118 8.09258 40272 ft 292 kts 297°
2026-05-01 14:28 49.07024 8.06488 40273 ft 292 kts 297°
2026-05-01 14:29 49.07934 8.03716 40274 ft 292 kts 297°
2026-05-01 14:29 49.08860 8.00948 40274 ft 292 kts 297°
2026-05-01 14:30 49.11579 7.92644 40265 ft 293 kts 297°
2026-05-01 14:30 49.12488 7.89863 40266 ft 293 kts 297°
2026-05-01 14:30 49.13396 7.87079 40267 ft 293 kts 297°
2026-05-01 14:31 49.15215 7.81513 40267 ft 293 kts 297°
2026-05-01 14:31 49.16123 7.78731 40268 ft 293 kts 297°
2026-05-01 14:31 49.17028 7.75943 40268 ft 292 kts 297°
2026-05-01 14:31 49.17933 7.73162 40269 ft 292 kts 297°
2026-05-01 14:32 49.18839 7.70373 40272 ft 292 kts 297°
2026-05-01 14:32 49.19731 7.67627 40272 ft 292 kts 296°
2026-05-01 14:32 49.20633 7.64841 40273 ft 292 kts 297°
2026-05-01 14:32 49.21533 7.62065 40270 ft 292 kts 297°
2026-05-01 14:33 49.22432 7.59284 40263 ft 292 kts 296°
2026-05-01 14:33 49.23331 7.56499 40262 ft 292 kts 296°
2026-05-01 14:33 49.24232 7.53710 40266 ft 292 kts 296°
2026-05-01 14:33 49.25130 7.50923 40262 ft 292 kts 296°
2026-05-01 14:34 49.26028 7.48134 40269 ft 292 kts 296°
2026-05-01 14:34 49.26927 7.45340 40271 ft 293 kts 296°
2026-05-01 14:34 49.27826 7.42539 40272 ft 293 kts 296°
2026-05-01 14:34 49.28726 7.39736 40271 ft 293 kts 296°
2026-05-01 14:35 49.29629 7.36926 40273 ft 294 kts 296°
2026-05-01 14:35 49.30525 7.34122 40274 ft 293 kts 296°
2026-05-01 14:35 49.31424 7.31310 40275 ft 294 kts 296°
2026-05-01 14:35 49.32311 7.28533 40280 ft 293 kts 296°
2026-05-01 14:36 49.33219 7.25690 40283 ft 293 kts 296°
2026-05-01 14:36 49.34115 7.22881 40282 ft 293 kts 296°
2026-05-01 14:36 49.34999 7.20106 40282 ft 293 kts 296°
2026-05-01 14:36 49.35891 7.17294 40283 ft 293 kts 296°
2026-05-01 14:37 49.36784 7.14485 40277 ft 293 kts 296°
2026-05-01 14:37 49.37678 7.11673 40275 ft 294 kts 296°
2026-05-01 14:37 49.38572 7.08850 40274 ft 294 kts 296°
2026-05-01 14:37 49.39466 7.06027 40274 ft 294 kts 295°
2026-05-01 14:38 49.40361 7.03194 40277 ft 294 kts 295°
2026-05-01 14:38 49.41254 7.00367 40278 ft 295 kts 295°
2026-05-01 14:38 49.42150 6.97533 40279 ft 295 kts 295°
2026-05-01 14:38 49.43044 6.94692 40265 ft 295 kts 295°
2026-05-01 14:39 49.43939 6.91852 40269 ft 295 kts 295°
2026-05-01 14:39 49.44832 6.89013 40270 ft 295 kts 295°
2026-05-01 14:39 49.45723 6.86172 40271 ft 295 kts 295°
2026-05-01 14:39 49.46616 6.83329 40271 ft 295 kts 295°
2026-05-01 14:40 49.47508 6.80483 40271 ft 295 kts 295°
2026-05-01 14:40 49.48389 6.77674 40271 ft 296 kts 295°
2026-05-01 14:40 49.49278 6.74822 40271 ft 295 kts 295°
2026-05-01 14:40 49.50167 6.71976 40276 ft 295 kts 295°
2026-05-01 14:41 49.51058 6.69127 40266 ft 296 kts 295°
2026-05-01 14:41 49.51948 6.66268 40264 ft 296 kts 295°
2026-05-01 14:41 49.52838 6.63407 40263 ft 296 kts 295°
2026-05-01 14:41 49.53727 6.60545 40264 ft 297 kts 295°
2026-05-01 14:42 49.54619 6.57675 40260 ft 297 kts 295°
2026-05-01 14:42 49.55509 6.54808 40264 ft 297 kts 295°
2026-05-01 14:42 49.56399 6.51931 40267 ft 297 kts 295°
2026-05-01 14:42 49.57288 6.49062 40269 ft 297 kts 295°
2026-05-01 14:43 49.58175 6.46190 40271 ft 297 kts 295°
2026-05-01 14:43 49.59060 6.43321 40274 ft 297 kts 295°
2026-05-01 14:43 49.59948 6.40446 40273 ft 297 kts 295°
2026-05-01 14:43 49.60833 6.37569 40272 ft 297 kts 295°
2026-05-01 14:44 49.61720 6.34688 40272 ft 297 kts 295°
2026-05-01 14:44 49.64034 6.29441 40274 ft 298 kts 315°
2026-05-01 14:44 49.65625 6.27454 40275 ft 299 kts 326°
2026-05-01 14:45 49.67465 6.25953 40273 ft 300 kts 337°
2026-05-01 14:45 49.71363 6.23658 40274 ft 300 kts 338°
2026-05-01 14:46 49.75271 6.21336 40271 ft 301 kts 338°
2026-05-01 14:46 49.81144 6.17851 40265 ft 301 kts 338°
2026-05-01 14:47 49.85065 6.15525 40268 ft 302 kts 338°
2026-05-01 14:48 49.90942 6.12020 40265 ft 301 kts 338°
2026-05-01 14:48 49.96787 6.08525 40263 ft 302 kts 338°
2026-05-01 14:49 50.04887 6.03669 39111 ft 328 kts 337°
2026-05-01 14:50 50.07716 6.01968 38846 ft 325 kts 337°
2026-05-01 14:50 50.13297 5.98609 38229 ft 321 kts 337°
2026-05-01 14:51 50.15380 5.97354 37996 ft 320 kts 337°
2026-05-01 14:51 50.19504 5.94858 37226 ft 321 kts 338°
2026-05-01 14:52 50.23638 5.92361 36614 ft 316 kts 338°
2026-05-01 14:52 50.25688 5.91121 36244 ft 316 kts 337°
2026-05-01 14:52 50.29766 5.88644 35818 ft 311 kts 338°
2026-05-01 14:53 50.31778 5.87418 35629 ft 310 kts 338°
2026-05-01 14:53 50.33786 5.86201 35491 ft 308 kts 337°
2026-05-01 14:53 50.35782 5.84989 35262 ft 309 kts 337°
2026-05-01 14:53 50.37785 5.83769 35074 ft 308 kts 336°
2026-05-01 14:54 50.39783 5.82542 34897 ft 308 kts 338°
2026-05-01 14:54 50.41800 5.81312 34524 ft 314 kts 338°
2026-05-01 14:54 50.43842 5.80068 34092 ft 321 kts 337°
2026-05-01 14:54 50.45946 5.78782 33649 ft 327 kts 337°
2026-05-01 14:55 50.48078 5.77480 33218 ft 330 kts 337°
2026-05-01 14:55 50.50230 5.76154 32778 ft 334 kts 337°
2026-05-01 14:55 50.52400 5.74817 32339 ft 335 kts 337°
2026-05-01 14:55 50.54583 5.73485 31909 ft 337 kts 338°
2026-05-01 14:56 50.56745 5.72032 31453 ft 338 kts 332°
2026-05-01 14:56 50.58692 5.70013 31013 ft 340 kts 321°
2026-05-01 14:56 50.60408 5.67448 30571 ft 340 kts 311°
2026-05-01 14:56 50.61890 5.64533 30092 ft 342 kts 308°
2026-05-01 14:57 50.63375 5.61601 29633 ft 342 kts 308°
2026-05-01 14:57 50.66372 5.55740 28704 ft 345 kts 308°
2026-05-01 14:57 50.67869 5.52777 28254 ft 345 kts 308°
2026-05-01 14:58 50.69365 5.49825 27924 ft 342 kts 308°
2026-05-01 14:58 50.70830 5.46940 27752 ft 334 kts 308°
2026-05-01 14:58 50.72263 5.44104 27350 ft 335 kts 308°
2026-05-01 14:58 50.73719 5.41222 26914 ft 336 kts 308°
2026-05-01 14:59 50.75182 5.38321 26462 ft 338 kts 308°
2026-05-01 14:59 50.76645 5.35420 26019 ft 338 kts 308°
2026-05-01 14:59 50.78111 5.32507 25569 ft 338 kts 308°
2026-05-01 14:59 50.79575 5.29597 25123 ft 338 kts 308°
2026-05-01 15:00 50.82504 5.23779 24221 ft 337 kts 308°
2026-05-01 15:00 50.83962 5.20868 23773 ft 337 kts 308°
2026-05-01 15:00 50.85410 5.17967 23290 ft 335 kts 308°
2026-05-01 15:01 50.86835 5.15074 22839 ft 332 kts 304°
2026-05-01 15:01 50.87540 5.12945 22543 ft 328 kts 287°
2026-05-01 15:01 50.87876 5.09415 22118 ft 322 kts 272°
2026-05-01 15:01 50.88019 5.05882 21699 ft 320 kts 271°
2026-05-01 15:02 50.88215 5.01251 21143 ft 317 kts 271°
2026-05-01 15:02 50.88267 5.00073 21001 ft 317 kts 271°
2026-05-01 15:02 50.88478 4.95431 20442 ft 314 kts 271°
2026-05-01 15:02 50.88628 4.91986 20028 ft 312 kts 271°
2026-05-01 15:03 50.88773 4.88607 19622 ft 311 kts 271°
2026-05-01 15:03 50.88922 4.85195 19211 ft 310 kts 271°
2026-05-01 15:03 50.89070 4.81801 18803 ft 308 kts 271°
2026-05-01 15:03 50.89212 4.78421 18379 ft 307 kts 270°
2026-05-01 15:04 50.89353 4.75060 17957 ft 305 kts 270°
2026-05-01 15:04 50.89498 4.71723 17554 ft 302 kts 270°
2026-05-01 15:04 50.89633 4.68412 17148 ft 300 kts 270°
2026-05-01 15:04 50.89770 4.65129 16752 ft 298 kts 270°
2026-05-01 15:05 50.89907 4.61864 16365 ft 296 kts 270°
2026-05-01 15:05 50.90036 4.58626 15988 ft 294 kts 269°
2026-05-01 15:05 50.89832 4.55474 15605 ft 285 kts 248°
2026-05-01 15:05 50.88953 4.52726 15230 ft 278 kts 231°
2026-05-01 15:06 50.87586 4.50631 14864 ft 271 kts 214°
2026-05-01 15:06 50.86071 4.48865 14507 ft 270 kts 214°
2026-05-01 15:06 50.84578 4.47069 14152 ft 269 kts 214°
2026-05-01 15:06 50.83083 4.45291 13775 ft 268 kts 214°
2026-05-01 15:07 50.81595 4.43539 13407 ft 265 kts 214°
2026-05-01 15:07 50.80122 4.41792 13065 ft 264 kts 214°
2026-05-01 15:07 50.78661 4.40053 12704 ft 263 kts 214°
2026-05-01 15:07 50.77202 4.38326 12375 ft 261 kts 214°
2026-05-01 15:08 50.75762 4.36627 12037 ft 261 kts 214°
2026-05-01 15:08 50.74314 4.34911 11698 ft 260 kts 214°
2026-05-01 15:08 50.72864 4.33199 11365 ft 259 kts 214°
2026-05-01 15:08 50.71409 4.31524 11033 ft 258 kts 211°
2026-05-01 15:09 50.69748 4.30576 10693 ft 255 kts 188°
2026-05-01 15:09 50.67988 4.30614 10363 ft 254 kts 169°
2026-05-01 15:09 50.66348 4.31632 10022 ft 255 kts 153°
2026-05-01 15:09 50.64793 4.32979 9673 ft 254 kts 153°
2026-05-01 15:10 50.63232 4.34272 9337 ft 253 kts 153°
2026-05-01 15:10 50.60122 4.36892 8665 ft 253 kts 153°
2026-05-01 15:10 50.58566 4.38195 8332 ft 253 kts 153°
2026-05-01 15:11 50.57042 4.39470 8217 ft 246 kts 153°
2026-05-01 15:11 50.54138 4.41908 7221 ft 239 kts 154°
2026-05-01 15:11 50.52669 4.43122 6523 ft 238 kts 153°
2026-05-01 15:12 50.51205 4.44355 5806 ft 238 kts 153°
2026-05-01 15:12 50.48298 4.46781 5262 ft 229 kts 154°
2026-05-01 15:12 50.47027 4.48161 5255 ft 219 kts 132°
2026-05-01 15:13 50.45779 4.54799 4975 ft 215 kts 104°
2026-05-01 15:14 50.45143 4.59480 4410 ft 220 kts 103°
2026-05-01 15:14 50.44832 4.61772 4127 ft 215 kts 103°
2026-05-01 15:14 50.44211 4.66274 3563 ft 208 kts 104°
2026-05-01 15:15 50.44171 4.70623 3223 ft 197 kts 68°
2026-05-01 15:15 50.45304 4.74482 3219 ft 192 kts 69°
2026-05-01 15:16 50.46438 4.78247 3212 ft 191 kts 58°
2026-05-01 15:16 50.48834 4.79858 3076 ft 203 kts 353°
2026-05-01 15:17 50.51437 4.78181 2999 ft 201 kts 334°
2026-05-01 15:18 50.53985 4.73713 2994 ft 192 kts 266°
2026-05-01 15:18 50.53634 4.71730 2994 ft 188 kts 243°
2026-05-01 15:19 50.52040 4.66165 2980 ft 184 kts 244°
2026-05-01 15:19 50.51134 4.63004 2775 ft 139 kts 242°
2026-05-01 15:19 50.50735 4.61666 2585 ft 135 kts 242°
2026-05-01 15:20 50.49970 4.59020 2240 ft 132 kts 241°
2026-05-01 15:20 50.49587 4.57704 2065 ft 132 kts 242°
2026-05-01 15:20 50.49207 4.56393 1889 ft 132 kts 243°
2026-05-01 15:21 50.48825 4.55075 1712 ft 131 kts 243°
2026-05-01 15:21 50.48461 4.53808 1537 ft 124 kts 242°
2026-05-01 15:21 50.48111 4.52594 1380 ft 120 kts 240°
2026-05-01 15:21 50.47758 4.51409 1229 ft 120 kts 242°
2026-05-01 15:22 50.47054 4.48953 930 ft 115 kts 244°
2026-05-01 15:22 50.46715 4.47793 771 ft 123 kts 243°
2026-05-01 15:22 50.46384 4.46646 625 ft 107 kts 242°
2026-05-01 15:23 50.46119 4.45737 622 ft 75 kts 244°
2026-05-01 15:23 50.45964 4.45205 617 ft 48 kts 244°
2026-05-01 15:23 50.45847 4.44808 629 ft 30 kts 246°
2026-05-01 15:23 50.45764 4.44619 627 ft 12 kts 188°
2026-05-01 15:24 50.45705 4.44650 633 ft 0 kts 149°
2026-05-01 15:25 50.45698 4.44665 628 ft 5 kts 107°
2026-05-01 15:25 50.45711 4.44740 631 ft 10 kts 66°
2026-05-01 15:25 50.45743 4.44854 626 ft 13 kts 66°
2026-05-01 15:25 50.45784 4.45004 623 ft 17 kts 66°
2026-05-01 15:26 50.45837 4.45182 624 ft 19 kts 66°
2026-05-01 15:26 50.45883 4.45351 621 ft 11 kts 63°
2026-05-01 15:26 50.45856 4.45420 622 ft 4 kts 112°
2026-05-01 15:26 50.45859 4.45437 618 ft 0 kts 67°